This demonstration page uses our WeatherBlox Daily Observations layout. Learn more.

40.92945, -100.16068

Hourly Observations for November 29, 2020

Temp ( °F °C ) Dew Point ( °F °C ) Humidity (%) Winds ( mph kmh ) Pressure ( in mb ) Visibility ( mi km ) Precip ( " mm )
12:15 am 00:15 Clear 29 -1.4 20 -6.4 69 69 W 8 13 30.14 1021 10 16.0934 0 0
12:35 am 00:35 Clear 30 -0.9 19 -7 64 64 WSW 5 7 30.14 1021 10 16.0934 0 0
12:55 am 00:55 Clear 28 -2.1 19 -7.4 67 67 NW 12 19 30.16 1021 10 16.0934 0 0
1:15 am 01:15 Clear 29 -1.5 20 -6.7 68 68 WNW 10 17 30.16 1021 10 16.0934 0 0
1:35 am 01:35 Clear 31 -0.4 21 -6.2 65 65 WNW 10 17 30.15 1021 10 16.0934 0 0
1:55 am 01:55 Clear 30 -1.3 20 -6.4 69 69 WNW 10 17 30.17 1022 10 16.0934 0 0
2:15 am 02:15 Clear 31 -0.3 20 -6.5 63 63 N 9 15 30.17 1022 10 16.0934 0 0
2:35 am 02:35 Clear 40 4.4 20 -6.5 45 45 N 22 35 30.13 1020 10 16.0934 0 0
2:55 am 02:55 Clear 40 4.3 20 -6.7 45 45 N 20 31 30.16 1021 10 16.0934 0 0
3:15 am 03:15 Clear 40 4.5 20 -6.7 44 44 N 22 35 30.16 1021 10 16.0934 0 0
3:35 am 03:35 Clear 40 4.5 19 -7 43 43 N 21 33 30.17 1022 10 16.0934 0 0
3:55 am 03:55 Clear 40 4.3 19 -7.3 43 43 N 26 43 30.19 1022 10 16.0934 0 0
4:15 am 04:15 Clear 39 4 19 -7.3 44 44 N 26 43 30.2 1023 10 16.0934 0 0
4:35 am 04:35 Clear 39 3.7 19 -7.4 45 45 N 23 37 30.22 1023 10 16.0934 0 0
4:55 am 04:55 Clear 38 3.3 19 -7.5 45 45 N 24 39 30.23 1024 10 16.0934 0 0
5:15 am 05:15 Clear 38 3.1 19 -7.5 46 46 N 25 41 30.25 1024 10 16.0934 0 0
5:35 am 05:35 Clear 37 2.8 19 -7.4 47 47 N 26 43 30.27 1025 10 16.0934 0 0
5:55 am 05:55 Clear 36 2.3 19 -7.2 50 50 N 22 35 30.29 1026 10 16.0934 0 0
6:15 am 06:15 Clear 36 2 19 -7.2 51 51 N 21 33 30.32 1027 10 16.0934 0 0
6:35 am 06:35 Clear 35 1.5 19 -7.3 52 52 N 21 33 30.34 1028 10 16.0934 0 0
6:55 am 06:55 Clear 34 1 19 -7 56 56 NNW 18 30 30.37 1028 10 16.0934 0 0
7:15 am 07:15 Clear 33 0.7 19 -7 57 57 N 17 28 30.38 1029 10 16.0934 0 0
7:35 am 07:35 Clear 33 0.5 19 -7 58 58 NNW 22 35 30.4 1030 10 16.0934 0 0
7:55 am 07:55 Sunny 33 0.3 20 -6.7 60 60 NNW 18 30 30.43 1030 10 16.0934 0 0
8:15 am 08:15 Sunny 33 0.6 20 -6.6 59 59 N 23 37 30.43 1031 10 16.0934 0 0
8:35 am 08:35 Sunny 33 0.7 20 -6.5 59 59 N 23 37 30.44 1031 10 16.0934 0 0
8:55 am 08:55 Sunny 33 0.3 20 -6.5 61 61 N 25 41 30.46 1031 10 16.0934 0 0
9:15 am 09:15 Sunny 32 0.1 21 -6.2 63 63 N 20 31 30.47 1032 10 16.0934 0 0
9:35 am 09:35 Sunny 33 0.5 20 -6.5 60 60 N 28 44 30.48 1032 10 16.0934 0 0
9:55 am 09:55 Sunny 35 1.4 20 -6.7 55 55 N 25 41 30.47 1032 10 16.0934 0 0
10:15 am 10:15 Sunny 34 0.9 19 -7.3 55 55 N 30 48 30.49 1032 10 16.0934 0 0
10:35 am 10:35 Sunny 34 1.3 19 -7.4 53 53 N 25 41 30.5 1033 10 16.0934 0 0
10:55 am 10:55 Sunny 35 1.7 19 -7.1 52 52 NNW 24 39 30.5 1033 10 16.0934 0 0
11:15 am 11:15 Sunny 36 2.1 18 -7.8 48 48 NNW 25 41 30.5 1033 10 16.0934 0 0
11:35 am 11:35 Sunny 36 2.1 18 -7.7 49 49 N 24 39 30.5 1033 10 16.0934 0 0
11:55 am 11:55 Sunny 35 1.8 16 -9.1 45 45 N 25 41 30.5 1033 10 16.0934 0 0
12:15 pm 12:15 Sunny 36 2.3 18 -7.8 48 48 N 18 30 30.49 1032 10 16.0934 0 0
12:35 pm 12:35 Sunny 36 2.4 16 -9 43 43 NNW 24 39 30.49 1033 10 16.0934 0 0
12:55 pm 12:55 Sunny 37 2.5 15 -9.7 41 41 NNW 22 35 30.49 1033 10 16.0934 0 0
1:15 pm 13:15 Sunny 37 2.7 12 -11 36 36 NNW 24 39 30.49 1033 10 16.0934 0 0
1:35 pm 13:35 Sunny 38 3.1 12 -11 35 35 N 25 41 30.48 1032 10 16.0934 0 0
1:55 pm 13:55 Sunny 38 3.1 12 -11.1 35 35 NNW 21 33 30.48 1032 10 16.0934 0 0
2:15 pm 14:15 Sunny 38 3.1 11 -11.4 34 34 NNW 22 35 30.48 1032 10 16.0934 0 0
2:35 pm 14:35 Sunny 37 3 12 -11 35 35 NNW 21 33 30.48 1032 10 16.0934 0 0
2:55 pm 14:55 Sunny 38 3.1 11 -11.5 34 34 NNW 25 41 30.48 1032 10 16.0934 0 0
3:15 pm 15:15 Sunny 38 3.2 10 -12 32 32 NNW 20 31 30.48 1032 10 16.0934 0 0
3:35 pm 15:35 Sunny 38 3.1 10 -12.3 32 32 N 21 33 30.47 1032 10 16.0934 0 0
3:55 pm 15:55 Sunny 37 3 9 -12.8 31 31 N 18 30 30.48 1032 10 16.0934 0 0
4:15 pm 16:15 Sunny 37 2.6 9 -12.9 31 31 NNW 15 24 30.49 1033 10 16.0934 0 0
4:35 pm 16:35 Sunny 36 2.1 9 -12.6 33 33 NNW 16 26 30.5 1033 10 16.0934 0 0
4:55 pm 16:55 Sunny 35 1.4 9 -12.7 35 35 NNW 15 24 30.5 1033 10 16.0934 0 0
5:15 pm 17:15 Clear 32 0 10 -12.5 39 39 NNW 10 17 30.53 1034 10 16.0934 0 0
5:35 pm 17:35 Clear 30 -1 10 -12.5 42 42 NNW 9 15 30.54 1034 10 16.0934 0 0
5:55 pm 17:55 Clear 29 -1.9 10 -12.2 46 46 NNW 12 19 30.55 1034 10 16.0934 0 0
6:15 pm 18:15 Clear 27 -2.8 10 -12.2 49 49 NNW 10 17 30.56 1035 10 16.0934 0 0
6:35 pm 18:35 Clear 25 -3.8 10 -12.5 51 51 NW 8 13 30.57 1035 10 16.0934 0 0
6:55 pm 18:55 Clear 24 -4.5 9 -12.9 52 52 NW 10 17 30.58 1036 10 16.0934 0 0
7:15 pm 19:15 Clear 22 -5.5 8 -13.1 55 55 NW 10 17 30.6 1036 10 16.0934 0 0
7:35 pm 19:35 Clear 23 -5 9 -12.7 55 55 NW 10 17 30.6 1036 10 16.0934 0 0
7:55 pm 19:55 Clear 22 -5.6 9 -13 56 56 WNW 9 15 30.62 1037 10 16.0934 0 0
8:15 pm 20:15 Clear 22 -5.8 9 -13 57 57 WNW 10 17 30.61 1037 10 16.0934 0 0
8:35 pm 20:35 Clear 22 -5.6 9 -13 56 56 WNW 10 17 30.61 1036 10 16.0934 0 0
8:55 pm 20:55 Clear 21 -6.2 9 -13 59 59 WNW 10 17 30.61 1037 10 16.0934 0 0
9:15 pm 21:15 Clear 19 -7.3 8 -13.5 62 62 NW 8 13 30.61 1037 10 16.0934 0 0
9:35 pm 21:35 Clear 18 -7.8 8 -13.6 63 63 NW 10 17 30.63 1037 10 16.0934 0 0
9:55 pm 21:55 Clear 17 -8.2 7 -13.7 65 65 NW 10 17 30.64 1038 10 16.0934 0 0
10:15 pm 22:15 Clear 17 -8.6 7 -13.9 66 66 NW 8 13 30.65 1038 10 16.0934 0 0
10:35 pm 22:35 Clear 15 -9.2 7 -14 68 68 WNW 8 13 30.65 1038 10 16.0934 0 0
10:55 pm 22:55 Clear 17 -8.5 7 -14 65 65 WNW 9 15 30.65 1038 10 16.0934 0 0
11:15 pm 23:15 Clear 16 -8.8 6 -14.2 65 65 W 9 15 30.64 1038 10 16.0934 0 0
11:35 pm 23:35 Clear 16 -9.1 7 -14.1 67 67 W 8 13 30.63 1037 10 16.0934 0 0
11:55 pm 23:55 Clear 13 -10.6 6 -14.7 72 72 W 7 11 30.65 1038 10 16.0934 0 0

Powered by AerisWeather